This is the latest recevied weather packets stored in our database for station/object KB1WCR. If no packets are shown the sender has not sent any weather packets the latest 10 day(s).
| Time | Temp. | Humidity | Pressure | Rain* | Wind** | Luminosity | Snow |
|---|---|---|---|---|---|---|---|
| 1787829715 | 16.67° C | 99% | 1018.1 hPa | 0 mm | - | 51 W/m² | - |
| 1787829411 | 16.11° C | 99% | 1018 hPa | 0 mm | - | 77 W/m² | - |
| 1787829107 | 16.11° C | 99% | 1018.1 hPa | 0 mm | - | 44 W/m² | - |
| 1787828807 | 16.11° C | 99% | 1018 hPa | 0 mm | - | 44 W/m² | - |
| 1787828504 | 16.11° C | 99% | 1018.1 hPa | 0 mm | - | 44 W/m² | - |
| 1787828203 | 16.11° C | 99% | 1017.9 hPa | 0 mm | - | 35 W/m² | - |
| 1787827902 | 16.11° C | 99% | 1017.9 hPa | 0 mm | - | 26 W/m² | - |
| 1787827597 | 15.56° C | 99% | 1017.8 hPa | 0 mm | - | 21 W/m² | - |
| 1787827291 | 15.56° C | 99% | 1017.9 hPa | 0 mm | - | 19 W/m² | - |
| 1787826990 | 15.56° C | 99% | 1017.9 hPa | 0 mm | - | 16 W/m² | - |
| 1787826685 | 15.56° C | 99% | 1017.9 hPa | 0 mm | - | 13 W/m² | - |
| 1787826381 | 15.56° C | 99% | 1017.9 hPa | 0 mm | - | 11 W/m² | - |
| 1787826078 | 15.56° C | 99% | 1017.8 hPa | 0 mm | - | 10 W/m² | - |
| 1787825776 | 15.56° C | 99% | 1017.8 hPa | 0 mm | - | 9 W/m² | - |
| 1787825474 | 15.56° C | 99% | 1017.7 hPa | 0 mm | - | 7 W/m² | - |
| 1787825169 | 15.56° C | 99% | 1017.7 hPa | 0 mm | - | 4 W/m² | - |
| 1787824866 | 15.56° C | 99% | 1017.8 hPa | 0 mm | - | 2 W/m² | - |
| 1787824560 | 15.56° C | 99% | 1017.9 hPa | 0 mm | - | 1 W/m² | - |
| 1787824255 | 15.56° C | 99% | 1018.1 hPa | 0 mm | - | 1 W/m² | - |
| 1787823951 | 15.56° C | 99% | 1018.1 hPa | 0 mm | - | 0 W/m² | - |
| 1787823646 | 15° C | 99% | 1017.8 hPa | 0 mm | - | 0 W/m² | - |
| 1787823340 | 15° C | 99% | 1017.9 hPa | 0 mm | - | 0 W/m² | - |
| 1787823040 | 15° C | 99% | 1017.8 hPa | 0 mm | - | 0 W/m² | - |
| 1787822733 | 15° C | 99% | 1017.6 hPa | 0 mm | - | 0 W/m² | - |
| 1787822428 | 15° C | 99% | 1017.7 hPa | 0 mm | - | 0 W/m² | - |
* Rain latest hour (hover to see other rain measurements)
** Current wind speed in m/s (hover to see current wind gust speed)